Weather History for Ogden, UT

Change the Weather History Date:

Saturday, February 2, 2013

  Actual Average Record
Temperature  
Mean Temperature 24 °F -  
Max Temperature 33 °F 37 °F 56 °F (1963)
Min Temperature 15 °F 17 °F -8 °F (1950)
Degree Days  
Heating Degree Days 41    
Moisture  
Dew Point 21 °F    
Average Humidity 83    
Maximum Humidity 100    
Minimum Humidity 69    
Precipitation  
Precipitation 0.00 in - - ()
Sea Level Pressure  
Sea Level Pressure 30.47 in    
Wind  
Wind Speed 3 mph (West)    
Max Wind Speed 8 mph    
Max Gust Speed -    
Visibility 6 miles    
Events Fog    
Averages and records for this station are not official NWS values.
T = Trace of Precipitation, MM = Missing Value Source: NWS Daily Summary

Daily Weather History Graph

Daily Weather History Graph

Search for Another Location

Airport:

Trip Planner

Search our weather history database for the weather conditions in past years. The results will help you decide how hot, cold, wet, or windy it might be!

Date:

Astronomy

Feb. 02, 2013 Rise Set
Actual Time 7:37 AM MST 5:46 PM MST
Civil Twilight 7:08 AM MST 6:15 PM MST
Nautical Twilight 6:35 AM MST 6:48 PM MST
Astronomical Twilight 6:03 AM MST 7:20 PM MST
Moon 12:00 AM MST (2/2) 10:46 AM MST (2/2)
Length of Visible Light 11h 06m
Length of Day
10h 08m
Waning Gibbous, 59% of the Moon is Illuminated
Feb 2
Waning Gibbous
Feb 3
Last Quarter
Feb 10
New
Feb 17
First Quarter
Feb 25
Full

Hourly Weather History & Observations

Time (MST) Temp. Windchill Dew Point Humidity Pressure Visibility Wind Dir Wind Speed Gust Speed Precip Events Conditions
12:53 AM 26.1 °F 20.5 °F 21.0 °F 81% 30.46 in 10.0 mi SSE 4.6 mph - N/A   Clear
2:53 AM 26.1 °F 17.6 °F 21.0 °F 81% 30.49 in 10.0 mi South 8.1 mph - N/A   Clear
3:53 AM 26.1 °F - 21.0 °F 81% 30.50 in 10.0 mi Calm Calm - N/A   Clear
5:53 AM 24.1 °F 15.2 °F 18.0 °F 77% 30.52 in 10.0 mi South 8.1 mph - N/A   Clear
6:53 AM 23.0 °F 13.9 °F 17.1 °F 78% 30.53 in 10.0 mi South 8.1 mph - N/A   Clear
7:53 AM 15.1 °F - 12.0 °F 88% 30.57 in 5.0 mi Calm Calm - N/A   Clear
8:53 AM 25.0 °F - 19.9 °F 81% 30.56 in 9.0 mi Calm Calm - N/A   Clear
9:53 AM 25.0 °F - 19.9 °F 81% 30.56 in 7.0 mi Calm Calm - N/A   Clear
10:53 AM 28.0 °F - 21.0 °F 75% 30.56 in 7.0 mi Calm Calm - N/A   Clear
11:53 AM 32.0 °F 28.7 °F 23.0 °F 69% 30.54 in 8.0 mi NNW 3.5 mph - N/A   Clear
12:53 PM 30.9 °F 27.5 °F 24.1 °F 76% 30.51 in 6.0 mi NW 3.5 mph - N/A   Haze
1:53 PM 33.1 °F 28.7 °F 25.0 °F 72% 30.48 in 5.0 mi NW 4.6 mph - N/A   Haze
2:53 PM 33.1 °F 28.7 °F 25.0 °F 72% 30.48 in 6.0 mi NW 4.6 mph - N/A   Haze
3:53 PM 33.1 °F 30.0 °F 25.0 °F 72% 30.48 in 8.0 mi WNW 3.5 mph - N/A   Clear
4:53 PM 30.9 °F 27.5 °F 24.1 °F 76% 30.48 in 8.0 mi WNW 3.5 mph - N/A   Clear
5:53 PM 28.0 °F 24.2 °F 21.9 °F 78% 30.49 in 9.0 mi West 3.5 mph - N/A   Clear
6:53 PM 26.1 °F - 23.0 °F 88% 30.49 in 9.0 mi Calm Calm - N/A   Clear
7:53 PM 27.0 °F - 23.0 °F 85% 30.51 in 8.0 mi Calm Calm - N/A   Clear
8:53 PM 26.1 °F 21.9 °F 21.9 °F 84% 30.47 in 6.0 mi SW 3.5 mph - N/A   Clear
9:53 PM 25.0 °F - 21.9 °F 88% 30.48 in 6.0 mi Calm Calm - N/A   Clear
10:53 PM 23.0 °F - 21.0 °F 92% 30.45 in 2.5 mi Calm Calm - N/A   Clear
10:58 PM 23.0 °F - 19.4 °F 86% 30.37 in 0.8 mi Calm Calm - N/A   Mist
11:01 PM 21.2 °F - 19.4 °F 93% 30.37 in 0.5 mi Calm Calm - N/A Fog Light Freezing Fog
11:08 PM 21.2 °F - 19.4 °F 93% 30.37 in 0.2 mi Calm Calm - N/A Fog Light Freezing Fog
11:24 PM 21.2 °F - 19.4 °F 93% 30.37 in 0.5 mi Calm Calm - N/A Fog Light Freezing Fog
11:51 PM 21.2 °F - 21.2 °F 100% 30.36 in 1.0 mi Calm Calm - N/A   Mist
11:53 PM 21.9 °F - 21.0 °F 96% 30.43 in 1.2 mi Calm Calm - N/A   Scattered Clouds
11:59 PM 21.2 °F - 19.4 °F 93% 30.36 in 0.8 mi Calm Calm - N/A   Mist